カタログに戻る

STARLINK-36164

運用中通信VLEO
NORAD 67127·PAYLOAD·🇺🇸 United States

打ち上げ Dec 15, 2025 から Cape Canaveral Space Force Station

Loading…

次のパス (今後24時間)

TLE

最新Source: CelesTrak SupGP

元期: Sep 15, 2026, 03:11 UTC

1 67127C 25299AB  26258.13312500 -.00016769  00000+0 -60745-3 0  2581
2 67127  42.9994 178.8126 0001088 278.2390  44.2462 15.27582908    13

AllMySatでSTARLINK-36164をリアルタイム追跡

Download on the App Store